User: anonymous   Login
Location: Augirein
(42.9320°N, 0.9181°E)
Time: 21:36:47
(UTC+00:00)
Language:

Cosmos 2292 Rocket - Orbit

View from above orbital plane
View from above orbital plane
View from above satellite
View from above satellite

Ground track
Ground track

The orbit data is extracted from the following two-line orbital elements,

1 23279U 94061B   21266.87827679  .00001461  00000-0  93105-4 0  9998
2 23279  82.9687 224.9262 0731579 129.6251 237.1874 13.94516147342259
Epoch (UTC): 23 September 2021 21:04:43
Eccentricity: 0.0731579
inclination: 82.9687°
perigee height: 379 km
apogee height: 1446 km
right ascension of ascending node: 224.9262°
argument of perigee: 129.6251°
revolutions per day: 13.94516147
mean anomaly at epoch: 237.1874°
orbit number at epoch: 34225

The dashed part of the orbit path shows where the satellite is in the earth's shadow,  

DLR